This demonstration page uses our WeatherBlox Daily Observations layout. Learn more.

Left ArrowRight Arrow

Hourly Observations for February 15, 2018

Temp ( °F °C ) Dew Point ( °F °C ) Humidity (%) Winds ( mph kmh ) Pressure ( in mb ) Visibility ( mi km ) Precip ( " mm )
12:15 am 00:15 Cloudy 48 9 48 9 100 100 WSW 3 6 30.09 1019 10 16.0934 0 0
12:35 am 00:35 Mostly Cloudy 46 8 46 8 100 100 SW 6 9 30.06 1018 10 16.0934 0 0
12:55 am 00:55 Mostly Cloudy 48 9 48 9 100 100 SSW 7 11 30.06 1018 10 16.0934 0 0
1:15 am 01:15 Mostly Cloudy 48 9 48 9 100 100 SSW 8 13 30.06 1018 10 16.0934 0 0
1:35 am 01:35 Partly Cloudy 46 8 46 8 100 100 SSW 8 13 30.03 1017 10 16.0934 0 0
1:55 am 01:55 Clear 46 8 46 8 100 100 SSW 8 13 30.03 1017 10 16.0934 0 0
2:15 am 02:15 Partly Cloudy 46 8 46 8 100 100 SSW 3 6 30.03 1017 7 11.26538 0 0
2:35 am 02:35 Cloudy 46 8 46 8 100 100 Calm 30.03 1017 7 11.26538 0 0
2:55 am 02:55 Partly Cloudy with Nearby Thunderstorms 46 8 46 8 100 100 Calm 30.03 1017 7 11.26538 0 0
3:15 am 03:15 Partly Cloudy with Mist and Fog 45 7 45 7 100 100 Calm 30 1016 4 6.43736 0 0
3:35 am 03:35 Clear with Mist and Fog 45 7 45 7 100 100 Calm 30 1016 5 8.0467 0 0
3:55 am 03:55 Partly Cloudy with Mist and Fog 45 7 45 7 100 100 Calm 30 1016 4 6.43736 0 0
4:15 am 04:15 Mostly Cloudy with Mist and Fog 45 7 45 7 100 100 Calm 30 1016 1 1.60934 0 0
4:35 am 04:35 Partly Cloudy with Mist and Fog 45 7 45 7 100 100 Calm 30 1016 3 4.82802 0 0
4:55 am 04:55 Clear with Mist and Fog 45 7 45 7 100 100 Calm 30 1016 5 8.0467 0 0
5:15 am 05:15 Mostly Cloudy with Mist and Fog 45 7 45 7 100 100 Calm 30 1016 3 4.82802 0 0
5:35 am 05:35 Mostly Cloudy with Mist and Fog 45 7 45 7 100 100 Calm 30 1016 3 4.82802 0 0
5:55 am 05:55 Partly Cloudy with Mist and Fog 45 7 45 7 100 100 Calm 30 1016 5 8.0467 0 0
6:15 am 06:15 Partly Cloudy with Mist and Fog 45 7 45 7 100 100 Calm 30 1016 3 4.82802 0 0
6:35 am 06:35 Mostly Cloudy with Fog 41 5 41 5 100 100 Calm 30 1016 0.5 0.80467 0 0
6:55 am 06:55 Cloudy with Fog 43 6 43 6 100 100 Calm 29.97 1015 0.25 0.402335 0 0
7:15 am 07:15 Mostly Cloudy with Fog 43 6 43 6 100 100 Calm 30 1016 0.5 0.80467 0 0
7:35 am 07:35 Partly Cloudy with Mist and Fog 43 6 43 6 100 100 Calm 30 1016 1.75 2.816345 0 0
7:55 am 07:55 Partly Cloudy with Mist and Fog 43 6 43 6 100 100 Calm 30 1016 3 4.82802 0 0
8:15 am 08:15 Partly Cloudy with Mist and Fog 41 5 41 5 100 100 Calm 30 1016 1.75 2.816345 0 0
8:35 am 08:35 Sunny with Mist and Fog 43 6 43 6 100 100 Calm 30 1016 2.5 4.02335 0 0
8:55 am 08:55 Sunny with Mist and Fog 46 8 46 8 100 100 S 3 6 30 1016 5 8.0467 0 0
9:15 am 09:15 Sunny 48 9 48 9 100 100 S 5 7 30 1016 7 11.26538 0 0
9:35 am 09:35 Sunny 50 10 50 10 100 100 S 3 6 29.97 1015 10 16.0934 0 0
9:55 am 09:55 Sunny 52 11 52 11 100 100 SSW 3 6 29.94 1014 10 16.0934 0 0
10:15 am 10:15 Sunny 52 11 52 11 100 100 SSW 3 6 29.94 1014 10 16.0934 0 0
10:35 am 10:35 Sunny 54 12 52 11 94 94 S 5 7 29.94 1014 10 16.0934 0 0
10:55 am 10:55 Sunny 55 13 54 12 94 94 S 5 7 29.94 1014 10 16.0934 0 0
11:15 am 11:15 Sunny 59 15 54 12 82 82 S 5 7 29.94 1014 10 16.0934 0 0
11:35 am 11:35 Partly Cloudy 61 16 55 13 83 83 S 7 11 29.91 1013 10 16.0934 0 0
11:55 am 11:55 Partly Cloudy 63 17 55 13 77 77 SSW 7 11 29.91 1013 10 16.0934 0 0
12:15 pm 12:15 Sunny 64 18 55 13 73 73 S 9 15 29.88 1012 10 16.0934 0 0
12:35 pm 12:35 Sunny 66 19 55 13 68 68 S 9 15 29.88 1012 10 16.0934 0 0
12:55 pm 12:55 Sunny 68 20 55 13 64 64 SSW 9 15 29.88 1012 10 16.0934 0 0
1:15 pm 13:15 Partly Cloudy 70 21 55 13 60 60 S 13 20 29.85 1011 10 16.0934 0 0
1:35 pm 13:35 Sunny 68 20 55 13 64 64 SSW 8 13 29.83 1010 10 16.0934 0 0
1:55 pm 13:55 Partly Cloudy 72 22 55 13 57 57 SW 10 17 29.83 1010 10 16.0934 0 0
2:15 pm 14:15 Partly Cloudy 72 22 55 13 57 57 S 8 13 29.83 1010 10 16.0934 0 0
2:35 pm 14:35 Mostly Cloudy 73 23 57 14 57 57 S 8 13 29.8 1009 10 16.0934 0 0
2:55 pm 14:55 Cloudy 73 23 57 14 57 57 SSW 5 7 29.8 1009 10 16.0934 0 0
3:15 pm 15:15 Mostly Cloudy 73 23 57 14 57 57 SW 5 7 29.8 1009 10 16.0934 0 0
3:35 pm 15:35 Partly Cloudy 77 25 59 15 54 54 WSW 5 7 29.77 1008 10 16.0934 0 0
3:55 pm 15:55 Sunny 77 25 59 15 54 54 SW 9 15 29.77 1008 10 16.0934 0 0
4:15 pm 16:15 Sunny 77 25 59 15 54 54 SW 10 17 29.77 1008 10 16.0934 0 0
4:35 pm 16:35 Sunny 75 24 59 15 57 57 SSW 6 9 29.77 1008 10 16.0934 0 0
4:55 pm 16:55 Mostly Cloudy 75 24 59 15 57 57 SSW 8 13 29.77 1008 10 16.0934 0 0
5:15 pm 17:15 Cloudy 73 23 59 15 61 61 WSW 9 15 29.77 1008 10 16.0934 0 0
5:35 pm 17:35 Partly Cloudy 72 22 59 15 65 65 W 6 9 29.77 1008 10 16.0934 0 0
5:55 pm 17:55 Mostly Cloudy 70 21 59 15 69 69 WSW 5 7 29.77 1008 10 16.0934 0 0
6:15 pm 18:15 Mostly Cloudy 68 20 59 15 73 73 WSW 5 7 29.77 1008 10 16.0934 0 0
6:35 pm 18:35 Partly Cloudy 70 21 59 15 69 69 SW 5 7 29.77 1008 10 16.0934 0 0
6:55 pm 18:55 Clear 70 21 59 15 69 69 SW 9 15 29.77 1008 10 16.0934 0 0
7:15 pm 19:15 Partly Cloudy 70 21 59 15 69 69 S 8 13 29.74 1007 10 16.0934 0 0
7:35 pm 19:35 Mostly Cloudy 70 21 59 15 69 69 SW 10 17 29.74 1007 10 16.0934 0 0
7:55 pm 19:55 Partly Cloudy 70 21 59 15 69 69 SSW 12 19 29.74 1007 10 16.0934 0 0
8:15 pm 20:15 Partly Cloudy 70 21 59 15 69 69 SW 10 17 29.74 1007 10 16.0934 0 0
8:35 pm 20:35 Mostly Cloudy 70 21 59 15 69 69 SW 13 20 29.74 1007 10 16.0934 0 0
8:55 pm 20:55 Partly Cloudy 70 21 59 15 69 69 SW 13 20 29.71 1006 10 16.0934 0 0
9:15 pm 21:15 Clear 68 20 59 15 73 73 SW 14 22 29.71 1006 10 16.0934 0 0
9:35 pm 21:35 Clear 68 20 59 15 73 73 SW 14 22 29.71 1006 10 16.0934 0 0
9:55 pm 21:55 Clear 68 20 59 15 73 73 SW 12 19 29.71 1006 10 16.0934 0 0
10:15 pm 22:15 Clear 68 20 59 15 73 73 WSW 8 13 29.71 1006 10 16.0934 0 0
10:35 pm 22:35 Clear 68 20 59 15 73 73 SW 5 7 29.71 1006 10 16.0934 0 0
10:55 pm 22:55 Partly Cloudy 64 18 59 15 83 83 SSW 3 6 29.71 1006 10 16.0934 0 0
11:15 pm 23:15 Cloudy 64 18 59 15 83 83 SSW 3 6 29.71 1006 10 16.0934 0 0
11:35 pm 23:35 Cloudy 63 17 59 15 88 88 SSW 5 7 29.71 1006 10 16.0934 0 0
11:55 pm 23:55 Cloudy 64 18 59 15 83 83 SW 6 9 29.68 1005 10 16.0934 0 0

Powered by AerisWeather